TimeEDT,TemperatureF,Dew PointF,Humidity,Sea Level PressureIn,VisibilityMPH,Wind Direction,Wind SpeedMPH,Gust SpeedMPH,PrecipitationIn,Events,Conditions,WindDirDegrees,DateUTC
12:48 AM,66.2,64.4,94,30.14,2.5,Calm,Calm,-,N/A,,Mostly Cloudy,0,2012-10-04 04:48:00
12:53 AM,66.0,64.9,96,30.14,3.0,Calm,Calm,-,N/A,,Mostly Cloudy,0,2012-10-04 04:53:00
1:08 AM,66.2,64.4,94,30.15,2.5,Calm,Calm,-,N/A,,Mostly Cloudy,0,2012-10-04 05:08:00
1:30 AM,64.4,64.4,100,30.15,3.0,NNW,3.5,-,0.00,Rain,Light Rain,330,2012-10-04 05:30:00
1:53 AM,66.0,64.9,96,30.15,3.0,Calm,Calm,-,0.00,Rain,Light Rain,0,2012-10-04 05:53:00
2:06 AM,66.2,64.4,94,30.14,2.5,Calm,Calm,-,N/A,,Scattered Clouds,0,2012-10-04 06:06:00
2:48 AM,64.4,64.4,100,30.14,1.2,Calm,Calm,-,0.00,,Clear,0,2012-10-04 06:48:00
2:53 AM,64.9,64.0,97,30.13,1.2,Calm,Calm,-,0.00,,Partly Cloudy,0,2012-10-04 06:53:00
3:17 AM,64.4,64.4,100,30.13,1.5,Calm,Calm,-,N/A,,Mostly Cloudy,0,2012-10-04 07:17:00
3:53 AM,64.9,64.0,97,30.13,1.5,Calm,Calm,-,N/A,,Overcast,0,2012-10-04 07:53:00
3:59 AM,64.4,64.4,100,30.14,0.8,Calm,Calm,-,0.00,Rain,Light Rain,0,2012-10-04 07:59:00
4:22 AM,64.4,64.4,100,30.14,1.2,Calm,Calm,-,0.00,,Overcast,0,2012-10-04 08:22:00
4:37 AM,64.4,64.4,100,30.13,2.0,North,3.5,-,0.00,Rain,Light Rain,10,2012-10-04 08:37:00
4:53 AM,64.9,64.9,100,30.14,2.5,Calm,Calm,-,0.01,Rain,Light Rain,0,2012-10-04 08:53:00
5:04 AM,66.2,64.4,94,30.14,3.0,Calm,Calm,-,0.00,,Overcast,0,2012-10-04 09:04:00
5:48 AM,66.2,64.4,94,30.15,2.0,Calm,Calm,-,0.00,,Overcast,0,2012-10-04 09:48:00
5:53 AM,66.0,64.9,96,30.14,2.0,Calm,Calm,-,0.00,Rain,Light Rain,0,2012-10-04 09:53:00
6:34 AM,66.2,64.4,94,30.16,1.8,Calm,Calm,-,0.07,Rain,Rain,0,2012-10-04 10:34:00
6:41 AM,66.2,64.4,94,30.16,2.5,NW,3.5,-,0.08,Rain,Light Rain,310,2012-10-04 10:41:00
6:47 AM,66.2,64.4,94,30.16,3.0,Calm,Calm,-,0.08,Rain,Light Rain,0,2012-10-04 10:47:00
6:53 AM,66.0,64.9,96,30.15,3.0,Calm,Calm,-,0.09,Rain,Rain,0,2012-10-04 10:53:00
7:03 AM,66.2,64.4,94,30.14,2.5,East,5.8,-,0.00,Rain,Light Rain,90,2012-10-04 11:03:00
7:24 AM,66.2,64.4,94,30.12,3.0,Calm,Calm,-,0.01,Rain,Light Rain,0,2012-10-04 11:24:00
7:34 AM,66.2,64.4,94,30.11,2.5,ENE,4.6,-,0.01,,Overcast,60,2012-10-04 11:34:00
7:53 AM,66.0,64.9,96,30.15,2.5,Calm,Calm,-,0.01,Rain,Light Rain,0,2012-10-04 11:53:00
8:00 AM,66.2,64.4,94,30.15,3.0,NNW,3.5,-,0.00,Rain,Light Rain,330,2012-10-04 12:00:00
8:08 AM,66.2,64.4,94,30.15,2.5,Calm,Calm,-,0.00,Rain,Light Rain,0,2012-10-04 12:08:00
8:27 AM,66.2,64.4,94,30.15,2.5,Calm,Calm,-,0.00,Rain,Light Rain,0,2012-10-04 12:27:00
8:38 AM,66.2,64.4,94,30.15,3.0,North,4.6,-,0.00,,Overcast,350,2012-10-04 12:38:00
8:44 AM,66.2,64.4,94,30.14,2.5,NNE,4.6,-,0.00,,Overcast,20,2012-10-04 12:44:00
8:53 AM,66.0,64.9,96,30.14,2.0,Calm,Calm,-,0.00,,Overcast,0,2012-10-04 12:53:00
9:30 AM,66.2,66.2,100,30.15,3.0,Calm,Calm,-,0.00,,Overcast,0,2012-10-04 13:30:00
9:53 AM,66.9,66.0,97,30.14,3.0,WNW,3.5,-,0.00,,Overcast,290,2012-10-04 13:53:00
10:01 AM,66.2,66.2,100,30.15,2.5,Calm,Calm,-,N/A,,Overcast,0,2012-10-04 14:01:00
10:19 AM,66.2,64.4,94,30.15,3.0,Calm,Calm,-,N/A,,Overcast,0,2012-10-04 14:19:00
10:45 AM,66.2,64.4,94,30.16,5.0,Calm,Calm,-,N/A,,Overcast,0,2012-10-04 14:45:00
10:53 AM,66.9,66.0,97,30.14,4.0,East,3.5,-,N/A,,Mostly Cloudy,80,2012-10-04 14:53:00
11:53 AM,69.1,66.0,90,30.15,6.0,Calm,Calm,-,N/A,,Mostly Cloudy,0,2012-10-04 15:53:00
12:17 PM,69.8,66.2,88,30.13,6.0,ESE,3.5,-,N/A,,Scattered Clouds,110,2012-10-04 16:17:00
12:26 PM,69.8,66.2,88,30.14,6.0,SE,3.5,-,N/A,,Mostly Cloudy,140,2012-10-04 16:26:00
12:33 PM,69.8,66.2,88,30.14,6.0,Calm,Calm,-,N/A,,Mostly Cloudy,0,2012-10-04 16:33:00
12:43 PM,69.8,66.2,88,30.15,6.0,Calm,Calm,-,N/A,,Mostly Cloudy,0,2012-10-04 16:43:00
12:53 PM,70.0,66.0,87,30.14,6.0,Calm,Calm,-,N/A,,Mostly Cloudy,0,2012-10-04 16:53:00
1:15 PM,69.8,64.4,83,30.14,8.0,Calm,Calm,-,N/A,,Scattered Clouds,0,2012-10-04 17:15:00
1:53 PM,71.1,64.9,81,30.12,7.0,Calm,Calm,-,N/A,,Partly Cloudy,0,2012-10-04 17:53:00
2:53 PM,73.9,66.9,79,30.10,7.0,Calm,Calm,-,N/A,,Mostly Cloudy,0,2012-10-04 18:53:00
3:53 PM,75.9,57.9,54,30.09,10.0,NW,4.6,-,N/A,,Scattered Clouds,310,2012-10-04 19:53:00
4:53 PM,75.0,55.9,51,30.09,10.0,Calm,Calm,-,N/A,,Partly Cloudy,0,2012-10-04 20:53:00
5:53 PM,73.0,55.0,53,30.09,9.0,Calm,Calm,-,N/A,,Clear,0,2012-10-04 21:53:00
6:53 PM,64.0,59.0,84,30.09,8.0,Calm,Calm,-,N/A,,Clear,0,2012-10-04 22:53:00
7:53 PM,60.1,57.9,93,30.10,7.0,Calm,Calm,-,N/A,,Clear,0,2012-10-04 23:53:00
8:53 PM,57.9,55.9,93,30.11,6.0,Calm,Calm,-,N/A,,Clear,0,2012-10-05 00:53:00
9:53 PM,57.0,55.0,93,30.12,5.0,Calm,Calm,-,N/A,,Clear,0,2012-10-05 01:53:00
10:53 PM,55.0,54.0,96,30.13,4.0,Calm,Calm,-,N/A,,Clear,0,2012-10-05 02:53:00
11:19 PM,55.4,53.6,94,30.12,2.5,Calm,Calm,-,N/A,,Clear,0,2012-10-05 03:19:00
11:27 PM,55.4,53.6,94,30.12,4.0,Calm,Calm,-,N/A,,Clear,0,2012-10-05 03:27:00
11:53 PM,54.0,53.1,97,30.12,2.0,Calm,Calm,-,N/A,,Clear,0,2012-10-05 03:53:00